TimeCDT,TemperatureF,Dew PointF,Humidity,Sea Level PressureIn,VisibilityMPH,Wind Direction,Wind SpeedMPH,Gust SpeedMPH,PrecipitationIn,Events,Conditions,WindDirDegrees,DateUTC
12:53 AM,55.9,46.9,72,29.98,10.0,East,5.8,-,N/A,,Clear,100,2013-09-23 05:53:00
1:53 AM,54.0,48.0,80,29.99,10.0,East,9.2,-,N/A,,Clear,90,2013-09-23 06:53:00
2:53 AM,53.1,48.0,83,29.98,10.0,East,9.2,-,N/A,,Clear,100,2013-09-23 07:53:00
3:53 AM,51.1,48.0,89,29.99,10.0,ESE,8.1,-,N/A,,Clear,110,2013-09-23 08:53:00
4:53 AM,51.1,46.9,86,29.99,10.0,ESE,8.1,-,N/A,,Clear,110,2013-09-23 09:53:00
5:53 AM,51.1,46.9,86,30.00,10.0,ESE,8.1,-,N/A,,Clear,120,2013-09-23 10:53:00
6:53 AM,50.0,46.9,89,30.02,10.0,ESE,9.2,-,N/A,,Clear,120,2013-09-23 11:53:00
7:53 AM,52.0,46.9,83,30.04,10.0,SSE,4.6,-,N/A,,Clear,150,2013-09-23 12:53:00
8:53 AM,55.9,48.9,77,30.04,10.0,SE,4.6,-,N/A,,Clear,130,2013-09-23 13:53:00
9:53 AM,60.1,50.0,69,30.05,10.0,South,5.8,-,N/A,,Clear,170,2013-09-23 14:53:00
10:53 AM,64.9,52.0,63,30.04,10.0,SSE,6.9,-,N/A,,Clear,150,2013-09-23 15:53:00
11:53 AM,69.1,52.0,54,30.04,10.0,South,10.4,-,N/A,,Clear,180,2013-09-23 16:53:00
12:53 PM,72.0,52.0,49,30.01,10.0,SSE,9.2,-,N/A,,Clear,160,2013-09-23 17:53:00
1:53 PM,73.0,52.0,48,29.99,10.0,South,11.5,-,N/A,,Clear,170,2013-09-23 18:53:00
2:53 PM,73.9,51.1,45,29.97,10.0,SSE,13.8,-,N/A,,Clear,150,2013-09-23 19:53:00
3:53 PM,73.9,51.1,45,29.96,10.0,SE,8.1,17.3,N/A,,Clear,140,2013-09-23 20:53:00
4:53 PM,73.9,50.0,43,29.95,10.0,SE,11.5,-,N/A,,Clear,140,2013-09-23 21:53:00
5:53 PM,73.0,48.9,42,29.94,10.0,SE,9.2,-,N/A,,Clear,130,2013-09-23 22:53:00
6:53 PM,70.0,48.9,47,29.94,10.0,SE,5.8,-,N/A,,Clear,130,2013-09-23 23:53:00
7:53 PM,64.9,50.0,58,29.94,10.0,SE,5.8,-,N/A,,Clear,130,2013-09-24 00:53:00
8:53 PM,62.1,48.9,62,29.95,10.0,ESE,5.8,-,N/A,,Clear,120,2013-09-24 01:53:00
9:53 PM,61.0,48.0,62,29.95,10.0,SE,5.8,-,N/A,,Clear,130,2013-09-24 02:53:00
10:53 PM,60.1,46.9,62,29.96,10.0,SE,4.6,-,N/A,,Clear,140,2013-09-24 03:53:00
11:53 PM,57.9,46.9,67,29.96,10.0,ESE,5.8,-,N/A,,Clear,120,2013-09-24 04:53:00